CAPE
2426 2387 1611 2185 2086 1763 1360 1632 1597 1689 1693 2018 2023 2093 1929 1711 1419 1262 1073 926 738 620
2086 2521 2577 1836 1874 1823 1773 1542 1435 1704 1863 2186 2052 2117 2149 1727 1591 1555 1263 1223 1116 1081
2701 2226 2171 2202 1857 1922 1390 1661 2599 2147 2093 2279 2308 2152 2120 2027 1958 1704 1765 1371 1334 1501
3077 2794 2558 2207 2508 1863 2257 1722 2071 2461 2450 2393 2506 2616 2236 2034 2080 1815 1853 1446 1393 1347
3329 3040 2801 2585 2294 2820 2230 2737 2628 2805 2334 2357 2328 2328 2234 2234 2193 1835 1701 1525 1262 1425
3258 3315 3177 2999 2743 2398 2787 2464 2414 3419 2940 2720 2868 2646 2489 2531 2121 1846 1786 1648 1409 1425
3281 3323 3154 3031 3086 2948 2807 3039 2762 2846 3304 2969 2775 2939 2903 2656 2307 2112 1877 1711 1634 1557
3150 3189 3154 2998 2903 2992 2856 2950 3155 2935 3109 2987 3057 3082 2892 2558 2363 2242 2126 2001 1788 1559
2599 2806 2854 2843 2827 3120 2850 3214 3241 3064 2927 3137 2994 3067 2965 2809 2531 2431 2039 1789 1823 1654
2780 2559 2657 2759 3117 3203 3465 3709 3202 3095 3198 3096 3114 2999 2513 2727 2633 2373 2265 2059 1991 1902
4447 3339 3133 4023 3859 3424 3652 3598 3694 3188 3208 3273 3165 2756 2244 2111 2469 2312 2288 2186 2049 1800
4193 4624 4011 4148 4235 3935 3940 3738 3917 3660 3292 3334 3335 2078 1659 1175 1989 2242 2095 2226 1920 1532
4265 4430 4325 4243 4336 4169 4074 4000 3956 3654 3270 3283 3311 1246 1437 1312 1840 1880 1763 1776 2103 1996
4302 4325 4420 4322 4320 4245 4169 3991 3804 3502 3358 3123 2706 750 703 1024 1747 1688 1508 1541 1506 1866
CIN
-66 -59 -72 -52 -53 -61 -75 -84 -107 -113 -96 -92 -88 -65 -59 -53 -58 -64 -70 -73 -90 -92
-102 -62 -55 -92 -73 -75 -70 -75 -81 -72 -97 -95 -86 -71 -48 -62 -50 -53 -73 -67 -63 -48
-98 -112 -102 -94 -91 -82 -107 -74 -57 -123 -128 -116 -69 -57 -46 -40 -41 -40 -31 -67 -41 -33
-84 -91 -88 -95 -85 -117 -88 -95 -62 -82 -91 -78 -65 -49 -46 -50 -38 -38 -28 -38 -36 -39
-74 -87 -88 -98 -114 -73 -101 -72 -63 -53 -66 -59 -65 -52 -48 -48 -29 -34 -26 -32 -36 -30
-93 -88 -99 -112 -117 -127 -95 -110 -83 -29 -49 -56 -40 -37 -42 -39 -45 -42 -37 -28 -25 -29
-126 -115 -115 -116 -121 -109 -107 -79 -87 -61 -31 -47 -44 -28 -24 -26 -32 -31 -29 -30 -31 -24
-131 -133 -130 -139 -148 -132 -118 -99 -77 -64 -35 -37 -28 -26 -37 -35 -35 -26 -27 -37 -34 -44
-178 -153 -158 -170 -170 -155 -136 -98 -89 -85 -58 -35 -26 -25 -22 -36 -37 -33 -57 -65 -46 -59
-197 -196 -189 -186 -165 -150 -139 -94 -130 -112 -63 -41 -40 -26 -41 -27 -55 -54 -45 -58 -66 -68
-80 -156 -179 -120 -126 -148 -135 -117 -111 -132 -99 -62 -62 -75 -107 -110 -53 -62 -53 -43 -41 -57
-52 -49 -109 -96 -102 -120 -106 -123 -90 -84 -94 -64 -52 -177 -204 -325 -129 -50 -39 -28 -40 -55
-45 -46 -58 -77 -76 -79 -84 -84 -62 -77 -81 -61 -45 -355 -251 -295 -137 -74 -58 -33 -25 -22
-21 -39 -56 -66 -59 -48 -43 -37 -31 -48 -44 -35 -51 -387 -383 -297 -110 -84 -64 -47 -41 -51
Wind_Speed
8 5 7 6 4 5 8 9 12 11 11 10 9 9 6 4 5 6 6 7 6 5
11 8 6 8 5 5 5 6 8 13 12 9 8 8 7 5 6 6 6 7 7 6
12 12 9 5 8 7 6 6 4 6 9 8 7 7 7 6 6 6 5 4 5 5
12 11 9 9 7 10 6 7 6 7 8 8 9 8 7 7 7 6 6 4 5 6
11 12 12 12 12 6 11 6 7 7 7 8 9 8 7 7 6 6 6 5 6 6
13 12 13 13 12 12 8 10 9 6 7 7 7 7 7 7 6 7 7 7 6 7
14 14 13 11 13 13 11 9 9 7 7 7 7 7 7 7 6 6 6 7 6 6
13 14 13 13 11 13 11 12 11 9 7 7 8 7 7 7 7 7 6 6 6 6
11 12 14 13 14 11 13 10 10 9 9 7 8 11 12 10 7 7 7 7 6 6
9 11 12 12 11 12 11 8 11 10 8 7 8 12 13 12 6 7 6 7 7 6
6 8 8 10 11 10 8 10 9 10 9 8 7 13 13 13 7 6 7 6 7 6
7 7 9 10 9 10 9 7 7 8 9 8 7 13 11 11 6 5 5 6 6 6
8 10 11 9 9 9 9 8 7 9 9 10 7 11 12 9 4 4 3 5 6 12
9 10 9 10 9 10 10 8 7 8 6 6 7 6 11 12 5 4 3 3 4 5
Wind_Direction
197 198 209 204 194 185 184 193 209 208 211 203 188 200 197 199 207 194 207 213 214 213
200 199 197 204 211 204 198 197 191 209 209 201 192 194 190 191 209 205 207 208 214 210
197 203 204 200 212 217 217 234 179 179 187 188 185 193 196 199 214 203 210 222 210 216
191 193 198 210 209 217 215 215 209 185 185 189 194 193 191 203 213 199 200 218 207 224
185 188 198 211 220 208 216 208 211 192 187 186 189 190 199 201 207 206 208 218 210 226
191 191 198 203 210 217 213 209 211 197 190 187 188 192 204 204 197 208 204 205 210 216
190 193 200 201 200 208 207 200 202 198 190 187 188 198 202 199 198 200 211 209 204 209
193 193 195 200 199 200 200 203 195 192 191 189 189 207 201 192 189 197 210 203 197 213
192 189 195 199 202 192 200 190 185 183 190 189 202 206 196 187 182 186 187 202 220 223
185 196 197 198 195 200 186 167 183 183 179 196 196 193 192 198 180 180 196 201 203 215
189 194 196 182 189 188 180 176 173 182 183 191 200 178 194 194 195 187 197 204 215 218
226 202 189 193 177 180 174 181 169 177 188 184 188 181 182 167 179 192 218 212 208 222
222 211 192 182 181 182 180 182 178 176 182 185 178 183 171 169 150 182 219 241 235 215
258 210 188 181 186 178 178 167 168 172 174 162 144 181 178 173 156 176 207 222 249 243